Voltar ao catálogo

SL-3 R/B

AtivoPO
NORAD 13068·ROCKET BODY·🇷🇺 Russia

Lançado Feb 19, 1982 de Plesetsk Cosmodrome

Loading…

Próximas Passagens (próximas 24 horas)

TLE

AtualizadoSource: Space-Track

Época: Sep 14, 2026, 13:43 UTC

1 13068U 82013B   26257.57198188  .00002350  00000-0  97455-4 0  9995
2 13068  81.1724 299.1038 0020479 260.6708  99.2209 15.23293185433095

Acompanhe SL-3 R/B em tempo real com AllMySat

Download on the App Store